Regional Weather Roundup
Issued by NWS

Home | Current Version | Previous Version | Text Only | Print | Product List | Glossary Off
Versions: 1 2 3 4 5 6 7 8 9 10 11 12 13 14 15 16 17 18 19 20 21 22 23 24 25 26 27 28 29 30 31 32 33 34 35 36 37 38 39 40 41 42 43 44 45 46 47 48 49 50

000
ASUS43 KFSD 260110
RWRSD

WEATHER ROUNDUP FOR SOUTH DAKOTA
NATIONAL WEATHER SERVICE SIOUX FALLS SD
800 PM CDT FRI JUL 25 2014

NOTE: "FAIR" INDICATES FEW OR NO CLOUDS BELOW 12,000 FEET WITH NO
SIGNIFICANT WEATHER AND/OR OBSTRUCTIONS TO VISIBILITY.


SDZ001>005-009-010-012>017-260200-
NORTHWEST AND NORTH CENTRAL SOUTH DAKOTA

CITY           SKY/WX    TMP DP  RH WIND       PRES   REMARKS
BUFFALO          N/A     79  50  36 SE9       29.79S
FAITH            N/A     80  50  34 E8        29.83F
MOBRIDGE       SUNNY     80  54  40 E5        29.79S
$$

SDZ012>016-024>037-041>051-057-063-072>074-260200-
SOUTHWEST AND SOUTH CENTRAL SOUTH DAKOTA

CITY           SKY/WX    TMP DP  RH WIND       PRES   REMARKS
RAPID CTY ARPT MOSUNNY   77  58  51 SE7       29.85F
PIERRE         SUNNY     84  51  31 NE6       29.80R
CUSTER         MOSUNNY   72  45  37 SE5       30.00F
ELLSWORTH AFB  MOSUNNY   80  53  39 SE8       29.86S
PHILIP         SUNNY     86  43  22 E13       29.81F
PINE RIDGE     PTSUNNY   78  57  48 E9        29.87F
WINNER         FAIR      87  67  51 NE6       29.81R
$$

SDZ004>011-016>023-039-040-260200-
NORTHEAST SOUTH DAKOTA

CITY           SKY/WX    TMP DP  RH WIND       PRES   REMARKS
ABERDEEN       SUNNY     76  59  55 NE6       29.80S
WATERTOWN      CLOUDY    74  68  81 N8        29.81S
SISSETON         N/A     78  70  76 CALM      29.77S
$$

SDZ017-020-022-023-036>040-048>070-260200-
SOUTHEAST SOUTH DAKOTA

CITY           SKY/WX    TMP DP  RH WIND       PRES   REMARKS
SIOUX FALLS    PTCLDY    82  70  66 N3        29.77R
HURON          CLOUDY    78  67  68 NE6       29.79S
CHAMBERLAIN    SUNNY     81  69  66 NE10      29.80R
MITCHELL       PTCLDY    80  69  69 N9        29.79S
YANKTON        PTCLDY    82  75  78 E5        29.76R
$$

ABBREVIATIONS USED IN REMARKS
   TC - TEMPERATURE IN CELSIUS
  WCI - WIND CHILL INDEX
   HX - HEAT INDEX
  VSB - VISIBILITY




USA.gov is the U.S. government's official web portal to all federal, state and local government web resources and services.